Regional Weather Roundup
Issued by NWS

Home | Current Version | Previous Version | Text Only | Print | Product List | Glossary On
Versions: 1 2 3 4 5 6 7 8 9 10 11 12 13 14 15 16 17 18 19 20 21 22 23 24 25 26 27 28 29 30 31 32 33 34 35 36 37 38 39 40 41 42 43 44 45 46 47 48 49 50
000
ASUS43 KMKX 271959
RWRWI

WISCONSIN REGIONAL WEATHER ROUNDUP
NATIONAL WEATHER SERVICE MILWAUKEE/SULLIVAN WI
200 PM CST TUE JAN 27 2015

NOTE: "FAIR" INDICATES FEW OR NO CLOUDS BELOW 12,000 FEET WITH NO
SIGNIFICANT WEATHER AND/OR OBSTRUCTIONS TO VISIBILITY.

WIZ001-002-006>008-014>016-023>028-272100-
NORTHWEST WISCONSIN

CITY           SKY/WX    TMP DP  RH WIND       PRES   REMARKS
SUPERIOR ARPT  CLOUDY    31  23  72 SW7       30.17F WCI  24
ASHLAND        CLOUDY    30  22  72 SW5       30.17F WCI  25
HAYWARD        CLOUDY    27  21  78 W5        30.16F WCI  22
SIREN          CLOUDY    30  23  76 S3        30.16F
CUMBERLAND     CLOUDY    28  23  80 CALM      30.16F
RICE LAKE      CLOUDY    29  23  77 CALM      30.18F
CHETEK         CLOUDY    29  23  77 SE3       30.18F
LADYSMITH      CLOUDY    28  21  76 CALM      30.20R
EAU CLAIRE     NOT AVBL
MENOMONIE      CLOUDY    30  22  73 E3        30.19F
NEW RICHMOND   CLOUDY    31  24  76 S6        30.17F WCI  25
OSCEOLA        CLOUDY    32  25  75 SE6       30.20F WCI  26
$$

WIZ003>005-009-010-017-018-272100-
NORTH CENTRAL WISCONSIN

CITY           SKY/WX    TMP DP  RH WIND       PRES   REMARKS
MANITOWISH WTR CLOUDY    23  19  84 W7        30.15R WCI  15
ARBOR VITAE    CLOUDY    25  19  78 SW6       30.15R WCI  18
WOODRUFF       CLOUDY    25  19  78 SW6       30.15R WCI  18
RHINELANDER    CLOUDY    24  17  74 W6        30.15S WCI  17
EAGLE RIVER    CLOUDY    24  16  73 CALM      30.14R
LAND O LAKES   CLOUDY    25  19  78 W5        30.14S WCI  19
PHILLIPS       CLOUDY    24  19  81 W3        30.16R
TOMAHAWK       CLOUDY    24  19  81 CALM      30.17R
MEDFORD        CLOUDY    24  21  87 S3        30.17R FOG
MERRILL        CLOUDY    25  20  81 CALM      30.18R
$$

WIZ029-030-035-036-043>047-272100-
CENTRAL WISCONSIN

CITY           SKY/WX    TMP DP  RH WIND       PRES   REMARKS
WAUSAU         CLOUDY    24  20  84 CALM      30.17R FOG
MOSINEE        NOT AVBL
MARSHFIELD     CLOUDY    26  21  81 CALM      30.18R HAZE
STEVENS POINT  FLURRIES  23  19  87 CALM      30.19S
WAUPACA        CLOUDY    29  19  64 CALM      30.21S
WAUTOMA        NOT AVBL
WISC RAPIDS    CLOUDY    25  21  85 CALM      30.21S
CAMP DOUGLAS   NOT AVBL
$$

WIZ011>013-019>022-031-037>040-048>050-272100-
NORTHEAST WISCONSIN

CITY           SKY/WX    TMP DP  RH WIND       PRES   REMARKS
ANTIGO         LGT SNOW  23  19  86 CALM      30.16S
SHAWANO        CLOUDY    29  17  60 CALM      30.22R
OCONTO         CLOUDY    26  13  58 CALM      30.22S
STURGEON BAY   CLOUDY    23  18  80 N7        30.23S WCI  15
GREEN BAY      CLOUDY    26  17  68 NE5       30.22S WCI  20
MANITOWOC      FLURRIES  28  19  69 N5        30.21F WCI  23
APPLETON       PTSUNNY   27  16  63 NE6       30.20S WCI  20
CLINTONVILLE   CLOUDY    28  18  64 CALM      30.21S
OSHKOSH        CLOUDY    28  17  63 N3        30.20S
$$

WIZ032>034-041-042-053>061-272100-
SOUTHWEST WISCONSIN

CITY           SKY/WX    TMP DP  RH WIND       PRES   REMARKS
LA CROSSE      CLOUDY    31  21  66 W6        30.22R WCI  25
SPARTA         CLOUDY    28  21  75 CALM      30.22R
VIROQUA        CLOUDY    27  22  80 CALM      30.17S
BOSCOBEL       CLOUDY    30  21  69 NE3       30.21S
PRAIRIE DU CHI CLOUDY    30  20  65 CALM      30.19F
PLATTEVILLE    CLOUDY    28  22  79 CALM      30.18S
$$

WIZ056-057-062-063-064-067-068-272100-
SOUTH CENTRAL WISCONSIN

CITY           SKY/WX    TMP DP  RH WIND       PRES   REMARKS
REEDSBURG      CLOUDY    27  23  87 CALM      30.19S
BARABOO/DELLS  CLOUDY    26  24  93 CALM      30.19S FOG
LONE ROCK      NOT AVBL
MINERAL POINT  CLOUDY    30  23  74 CALM      30.17S
MADISON        LGT SNOW  28  23  81 CALM      30.18S
MIDDLETON      CLOUDY    29  27  91 CALM      30.19S
WATERTOWN      CLOUDY    29  19  65 E5        30.18S WCI  24
MONROE         CLOUDY    28  28 100 CALM      30.16F FOG
JANESVILLE     CLOUDY    30  25  80 E3        30.18S
$$

WIZ051-052-058>065-066-070>072-272100-
SOUTHEAST WISCONSIN

CITY           SKY/WX    TMP DP  RH WIND       PRES   REMARKS
MILWAUKEE      MOSUNNY   29  16  58 NE10      30.20R WCI  20
WAUKESHA       MOSUNNY   28  16  59 NE7       30.18S WCI  21
MILWAUKEE/TIMM MOSUNNY   30  16  55 NE6       30.20S WCI  24
RACINE         SUNNY     30  17  58 NE12      30.21R WCI  20
BURLINGTON     SUNNY     29  16  56 NE6       30.17S WCI  23
KENOSHA        SUNNY     31  17  56 VRB7      30.18S WCI  24
FOND DU LAC    CLOUDY    29  17  61 NE6       30.20R WCI  23
SHEBOYGAN      CLOUDY    27  20  75 NE8       30.20S WCI  19
WEST BEND      MOSUNNY   30  18  59 NE8       30.18S WCI  23
JUNEAU         CLOUDY    28  18  66 CALM      30.19S
$$

LSZ147-162-272100-
LAKE SUPERIOR

STATION/POSITION TIME  TEMP    WIND        PRES    WAVE
                       AIR SEA DIR/SP/G            HT/PER
                 (UTC) (F)     (DEG/KT/KT) (MB)    (FT/S)
DEVILS ISLAND    1900   29     250/ 11/ 13 1023.1R
PORT WING        1900   30     330/  2/  3 1022.4
SAXON HARBOR     1940   29        CALM     1022.0S
$$

LMZ867-665-643>646-272100-
LAKE MICHIGAN

STATION/POSITION TIME  TEMP    WIND        PRES    WAVE
                       AIR SEA DIR/SP/G            HT/PER
                 (UTC) (F)     (DEG/KT/KT) (MB)    (FT/S)
NORTHPORT PIER   1900   26      70/  4/  5 1023.4F
SISTER BAY       1813   33     140/  8/ 10   N/A
KEWAUNEE LAKESHO 1900   27      40/  1/  4 1022.2F
SHEBOYGAN LAKESH 1900   26      40/  8/  9 1024.1S
PORT WASHINGTON  1900   28      70/  6/ 10 1023.4S
MILWAUKEE LAKESH 1900   27      40/  8/ 11   N/A
KENOSHA   LAKESH 1900   27      40/  7/ 11 1022.4S
$$

TC  - TEMPERATURE IN CELSIUS
VSB - VISIBILITY IN STATUTE MILES
WCI - WIND CHILL INDEX
HX  - HEAT INDEX




USA.gov is the U.S. government's official web portal to all federal, state and local government web resources and services.